Time,TemperatureF,DewpointF,PressureIn,WindDirection,WindDirectionDegrees,WindSpeedMPH,WindSpeedGustMPH,Humidity,HourlyPrecipIn,Conditions,Clouds,dailyrainin,SoftwareType,DateUTC
2013-05-01 00:05:00,43.7,33.8,30.33,North,353,0.0,1.0,68,0.00,,,0.00,Wunderground v.1.15,2013-05-01 04:05:00,
2013-05-01 00:10:00,43.4,33.9,30.33,North,352,0.0,0.0,69,0.00,,,0.00,Wunderground v.1.15,2013-05-01 04:10:00,
2013-05-01 00:15:00,43.3,33.8,30.33,North,352,0.0,0.0,69,0.00,,,0.00,Wunderground v.1.15,2013-05-01 04:15:00,
2013-05-01 00:20:00,43.2,33.7,30.33,North,352,0.0,0.0,69,0.00,,,0.00,Wunderground v.1.15,2013-05-01 04:20:00,
2013-05-01 00:30:00,43.0,34.6,30.33,North,352,0.0,0.0,72,0.00,,,0.00,Wunderground v.1.15,2013-05-01 04:30:00,
2013-05-01 00:35:00,42.8,33.7,30.33,North,352,0.0,0.0,70,0.00,,,0.00,Wunderground v.1.15,2013-05-01 04:35:00,
2013-05-01 00:40:00,42.6,34.9,30.33,North,352,0.0,0.0,74,0.00,,,0.00,Wunderground v.1.15,2013-05-01 04:40:00,
2013-05-01 00:45:00,42.4,35.0,30.33,North,352,0.0,0.0,75,0.00,,,0.00,Wunderground v.1.15,2013-05-01 04:45:00,
2013-05-01 00:50:00,42.5,35.1,30.34,North,352,0.0,0.0,75,0.00,,,0.00,Wunderground v.1.15,2013-05-01 04:50:00,
2013-05-01 01:00:00,42.1,34.7,30.34,North,352,0.0,0.0,75,0.00,,,0.00,Wunderground v.1.15,2013-05-01 05:00:00,
2013-05-01 01:10:00,41.7,34.7,30.34,North,352,0.0,1.0,76,0.00,,,0.00,Wunderground v.1.15,2013-05-01 05:10:00,
2013-05-01 01:15:00,41.7,34.4,30.34,North,352,0.0,1.0,75,0.00,,,0.00,Wunderground v.1.15,2013-05-01 05:15:00,
2013-05-01 01:20:00,41.5,34.2,30.34,North,352,0.0,0.0,75,0.00,,,0.00,Wunderground v.1.15,2013-05-01 05:20:00,
2013-05-01 01:25:00,41.2,33.2,30.34,North,352,0.0,0.0,73,0.00,,,0.00,Wunderground v.1.15,2013-05-01 05:25:00,
2013-05-01 01:30:00,41.3,33.3,30.34,East,93,0.0,0.0,73,0.00,,,0.00,Wunderground v.1.15,2013-05-01 05:30:00,
2013-05-01 01:40:00,40.9,33.2,30.35,East,93,0.0,0.0,74,0.00,,,0.00,Wunderground v.1.15,2013-05-01 05:40:00,
2013-05-01 01:45:00,40.6,33.0,30.34,East,93,0.0,0.0,74,0.00,,,0.00,Wunderground v.1.15,2013-05-01 05:45:00,
2013-05-01 01:50:00,40.4,33.1,30.35,East,93,0.0,0.0,75,0.00,,,0.00,Wunderground v.1.15,2013-05-01 05:50:00,
2013-05-01 02:00:00,40.3,33.3,30.35,East,93,0.0,0.0,76,0.00,,,0.00,Wunderground v.1.15,2013-05-01 06:00:00,
2013-05-01 02:05:00,40.0,33.4,30.35,East,93,0.0,0.0,77,0.00,,,0.00,Wunderground v.1.15,2013-05-01 06:05:00,
2013-05-01 02:10:00,39.7,33.4,30.35,East,93,0.0,0.0,78,0.00,,,0.00,Wunderground v.1.15,2013-05-01 06:10:00,
2013-05-01 02:15:00,39.4,33.4,30.35,East,94,0.0,0.0,79,0.00,,,0.00,Wunderground v.1.15,2013-05-01 06:15:00,
2013-05-01 02:20:00,39.1,33.1,30.35,East,93,0.0,0.0,79,0.00,,,0.00,Wunderground v.1.15,2013-05-01 06:20:00,
2013-05-01 02:25:00,38.9,33.6,30.35,East,94,0.0,0.0,81,0.00,,,0.00,Wunderground v.1.15,2013-05-01 06:25:00,
2013-05-01 02:30:00,38.8,33.8,30.35,East,93,0.0,0.0,82,0.00,,,0.00,Wunderground v.1.15,2013-05-01 06:30:00,
2013-05-01 02:35:00,38.6,33.9,30.35,East,93,0.0,0.0,83,0.00,,,0.00,Wunderground v.1.15,2013-05-01 06:35:00,
2013-05-01 02:40:00,38.5,33.8,30.35,East,93,0.0,0.0,83,0.00,,,0.00,Wunderground v.1.15,2013-05-01 06:40:00,
2013-05-01 02:45:00,38.4,34.0,30.35,East,93,0.0,0.0,84,0.00,,,0.00,Wunderground v.1.15,2013-05-01 06:45:00,
2013-05-01 02:50:00,38.5,33.8,30.35,East,93,0.0,0.0,83,0.00,,,0.00,Wunderground v.1.15,2013-05-01 06:50:00,
2013-05-01 03:00:00,38.4,33.1,30.36,East,93,0.0,0.0,81,0.00,,,0.00,Wunderground v.1.15,2013-05-01 07:00:00,
2013-05-01 03:05:00,38.2,33.2,30.36,East,93,0.0,0.0,82,0.00,,,0.00,Wunderground v.1.15,2013-05-01 07:05:00,
2013-05-01 03:10:00,38.0,33.6,30.36,East,93,0.0,0.0,84,0.00,,,0.00,Wunderground v.1.15,2013-05-01 07:10:00,
2013-05-01 03:20:00,37.6,33.5,30.36,East,93,0.0,0.0,85,0.00,,,0.00,Wunderground v.1.15,2013-05-01 07:20:00,
2013-05-01 03:25:00,37.3,33.2,30.36,East,93,0.0,0.0,85,0.00,,,0.00,Wunderground v.1.15,2013-05-01 07:25:00,
2013-05-01 03:30:00,37.3,34.1,30.37,East,93,0.0,0.0,88,0.00,,,0.00,Wunderground v.1.15,2013-05-01 07:30:00,
2013-05-01 03:35:00,37.2,34.0,30.37,North,4,0.0,1.0,88,0.00,,,0.00,Wunderground v.1.15,2013-05-01 07:35:00,
2013-05-01 03:45:00,37.3,33.8,30.37,North,3,0.0,0.0,87,0.00,,,0.00,Wunderground v.1.15,2013-05-01 07:45:00,
2013-05-01 03:50:00,37.2,33.7,30.37,North,4,0.0,0.0,87,0.00,,,0.00,Wunderground v.1.15,2013-05-01 07:50:00,
2013-05-01 03:55:00,37.3,34.1,30.37,WNW,300,0.0,0.0,88,0.00,,,0.00,Wunderground v.1.15,2013-05-01 07:55:00,
2013-05-01 04:00:00,37.4,33.9,30.37,WNW,302,0.0,0.0,87,0.00,,,0.00,Wunderground v.1.15,2013-05-01 08:00:00,
2013-05-01 04:05:00,37.2,33.7,30.38,WNW,302,0.0,0.0,87,0.00,,,0.00,Wunderground v.1.15,2013-05-01 08:05:00,
2013-05-01 04:10:00,37.1,33.9,30.38,WNW,302,0.0,0.0,88,0.00,,,0.00,Wunderground v.1.15,2013-05-01 08:10:00,
2013-05-01 04:15:00,37.0,33.8,30.38,WNW,302,0.0,0.0,88,0.00,,,0.00,Wunderground v.1.15,2013-05-01 08:15:00,
2013-05-01 04:20:00,36.9,33.7,30.38,WNW,302,0.0,0.0,88,0.00,,,0.00,Wunderground v.1.15,2013-05-01 08:20:00,
2013-05-01 04:25:00,36.8,33.3,30.38,WNW,302,0.0,0.0,87,0.00,,,0.00,Wunderground v.1.15,2013-05-01 08:25:00,
2013-05-01 04:35:00,36.7,33.2,30.38,WNW,302,0.0,0.0,87,0.00,,,0.00,Wunderground v.1.15,2013-05-01 08:35:00,
2013-05-01 04:40:00,36.7,33.2,30.38,WNW,302,0.0,0.0,87,0.00,,,0.00,Wunderground v.1.15,2013-05-01 08:40:00,
2013-05-01 04:45:00,36.7,33.2,30.39,WNW,302,0.0,0.0,87,0.00,,,0.00,Wunderground v.1.15,2013-05-01 08:45:00,
2013-05-01 04:50:00,36.7,33.5,30.39,WNW,302,0.0,0.0,88,0.00,,,0.00,Wunderground v.1.15,2013-05-01 08:50:00,
2013-05-01 04:55:00,36.7,33.5,30.39,WNW,302,0.0,0.0,88,0.00,,,0.00,Wunderground v.1.15,2013-05-01 08:55:00,
2013-05-01 05:00:00,36.8,33.3,30.39,WNW,302,0.0,0.0,87,0.00,,,0.00,Wunderground v.1.15,2013-05-01 09:00:00,
2013-05-01 05:05:00,36.9,33.4,30.39,WNW,302,0.0,0.0,87,0.00,,,0.00,Wunderground v.1.15,2013-05-01 09:05:00,
2013-05-01 05:10:00,36.8,33.3,30.40,NW,307,0.0,0.0,87,0.00,,,0.00,Wunderground v.1.15,2013-05-01 09:10:00,
2013-05-01 05:15:00,36.8,33.3,30.40,NNW,337,0.0,0.0,87,0.00,,,0.00,Wunderground v.1.15,2013-05-01 09:15:00,
2013-05-01 05:25:00,36.7,33.2,30.40,NNW,338,0.0,1.0,87,0.00,,,0.00,Wunderground v.1.15,2013-05-01 09:25:00,
2013-05-01 05:30:00,36.8,33.0,30.40,NNW,337,1.0,1.0,86,0.00,,,0.00,Wunderground v.1.15,2013-05-01 09:30:00,
2013-05-01 05:40:00,36.7,32.9,30.40,NNW,338,0.0,0.0,86,0.00,,,0.00,Wunderground v.1.15,2013-05-01 09:40:00,
2013-05-01 05:45:00,36.7,32.6,30.40,NNW,339,0.0,1.0,85,0.00,,,0.00,Wunderground v.1.15,2013-05-01 09:45:00,
2013-05-01 05:50:00,36.8,32.7,30.40,NNW,338,0.0,0.0,85,0.00,,,0.00,Wunderground v.1.15,2013-05-01 09:50:00,
2013-05-01 05:55:00,36.9,33.1,30.40,NNW,339,0.0,0.0,86,0.00,,,0.00,Wunderground v.1.15,2013-05-01 09:55:00,
2013-05-01 06:00:00,37.0,32.6,30.41,NNW,340,0.0,0.0,84,0.00,,,0.00,Wunderground v.1.15,2013-05-01 10:00:00,
2013-05-01 06:10:00,37.3,33.2,30.41,NNW,340,0.0,0.0,85,0.00,,,0.00,Wunderground v.1.15,2013-05-01 10:10:00,
2013-05-01 06:15:00,37.4,33.0,30.41,NNW,340,0.0,0.0,84,0.00,,,0.00,Wunderground v.1.15,2013-05-01 10:15:00,
2013-05-01 06:25:00,38.0,33.6,30.41,NNW,342,0.0,0.0,84,0.00,,,0.00,Wunderground v.1.15,2013-05-01 10:25:00,
2013-05-01 06:30:00,38.2,33.8,30.41,NNW,342,0.0,0.0,84,0.00,,,0.00,Wunderground v.1.15,2013-05-01 10:30:00,
2013-05-01 06:35:00,38.3,33.9,30.41,NNW,342,0.0,0.0,84,0.00,,,0.00,Wunderground v.1.15,2013-05-01 10:35:00,
2013-05-01 06:45:00,38.6,34.2,30.41,NNW,343,0.0,0.0,84,0.00,,,0.00,Wunderground v.1.15,2013-05-01 10:45:00,
2013-05-01 06:50:00,38.9,34.2,30.41,NNE,12,0.0,0.0,83,0.00,,,0.00,Wunderground v.1.15,2013-05-01 10:50:00,
2013-05-01 06:55:00,39.4,34.4,30.41,North,11,0.0,0.0,82,0.00,,,0.00,Wunderground v.1.15,2013-05-01 10:55:00,
2013-05-01 07:00:00,39.8,34.4,30.41,North,11,0.0,0.0,81,0.00,,,0.00,Wunderground v.1.15,2013-05-01 11:00:00,
2013-05-01 07:05:00,40.3,34.9,30.42,North,11,0.0,0.0,81,0.00,,,0.00,Wunderground v.1.15,2013-05-01 11:05:00,
2013-05-01 07:10:00,40.7,35.3,30.42,North,11,0.0,0.0,81,0.00,,,0.00,Wunderground v.1.15,2013-05-01 11:10:00,
2013-05-01 07:20:00,41.6,35.9,30.42,ESE,109,0.0,0.0,80,0.00,,,0.00,Wunderground v.1.15,2013-05-01 11:20:00,
2013-05-01 07:30:00,42.7,36.0,30.42,ESE,108,0.0,0.0,77,0.00,,,0.00,Wunderground v.1.15,2013-05-01 11:30:00,
2013-05-01 07:35:00,43.6,36.2,30.42,ESE,108,0.0,0.0,75,0.00,,,0.00,Wunderground v.1.15,2013-05-01 11:35:00,
2013-05-01 07:40:00,44.4,36.3,30.41,ESE,108,0.0,1.0,73,0.00,,,0.00,Wunderground v.1.15,2013-05-01 11:40:00,
2013-05-01 07:45:00,45.4,36.5,30.41,SE,128,0.0,1.0,71,0.00,,,0.00,Wunderground v.1.15,2013-05-01 11:45:00,
2013-05-01 07:55:00,46.7,37.1,30.41,SE,130,0.0,0.0,69,0.00,,,0.00,Wunderground v.1.15,2013-05-01 11:55:00,
2013-05-01 08:00:00,47.1,37.1,30.41,SE,129,0.0,0.0,68,0.00,,,0.00,Wunderground v.1.15,2013-05-01 12:00:00,
2013-05-01 08:05:00,48.1,37.3,30.41,SE,131,0.0,1.0,66,0.00,,,0.00,Wunderground v.1.15,2013-05-01 12:05:00,
2013-05-01 08:10:00,48.9,37.3,30.41,SE,129,1.0,1.0,64,0.00,,,0.00,Wunderground v.1.15,2013-05-01 12:10:00,
2013-05-01 08:15:00,49.8,37.3,30.41,ESE,122,1.0,1.0,62,0.00,,,0.00,Wunderground v.1.15,2013-05-01 12:15:00,
2013-05-01 08:25:00,52.4,37.6,30.41,SE,128,1.0,1.0,57,0.00,,,0.00,Wunderground v.1.15,2013-05-01 12:25:00,
2013-05-01 08:35:00,54.4,38.1,30.41,ESE,115,1.0,1.0,54,0.00,,,0.00,Wunderground v.1.15,2013-05-01 12:35:00,
2013-05-01 08:40:00,55.2,38.4,30.41,SE,142,1.0,1.0,53,0.00,,,0.00,Wunderground v.1.15,2013-05-01 12:40:00,
2013-05-01 08:45:00,55.6,37.7,30.41,SE,141,1.0,2.0,51,0.00,,,0.00,Wunderground v.1.15,2013-05-01 12:45:00,
2013-05-01 08:50:00,55.7,37.8,30.41,SE,139,2.0,2.0,51,0.00,,,0.00,Wunderground v.1.15,2013-05-01 12:50:00,
2013-05-01 09:00:00,57.4,38.9,30.41,ESE,110,1.0,2.0,50,0.00,,,0.00,Wunderground v.1.15,2013-05-01 13:00:00,
2013-05-01 09:05:00,58.0,37.9,30.41,NE,40,1.0,2.0,47,0.00,,,0.00,Wunderground v.1.15,2013-05-01 13:05:00,
2013-05-01 09:10:00,59.0,38.8,30.41,SSE,154,1.0,2.0,47,0.00,,,0.00,Wunderground v.1.15,2013-05-01 13:10:00,
2013-05-01 09:20:00,60.5,37.9,30.41,SE,141,2.0,2.0,43,0.00,,,0.00,Wunderground v.1.15,2013-05-01 13:20:00,
2013-05-01 09:25:00,61.5,38.2,30.42,SE,141,2.0,2.0,42,0.00,,,0.00,Wunderground v.1.15,2013-05-01 13:25:00,
2013-05-01 09:35:00,62.6,37.9,30.41,SSW,203,1.0,1.0,40,0.00,,,0.00,Wunderground v.1.15,2013-05-01 13:35:00,
2013-05-01 09:40:00,63.2,38.5,30.41,SSE,165,1.0,2.0,40,0.00,,,0.00,Wunderground v.1.15,2013-05-01 13:40:00,
2013-05-01 09:45:00,63.9,37.8,30.41,South,172,2.0,2.0,38,0.00,,,0.00,Wunderground v.1.15,2013-05-01 13:45:00,
2013-05-01 09:50:00,64.4,38.2,30.41,SSW,198,2.0,2.0,38,0.00,,,0.00,Wunderground v.1.15,2013-05-01 13:50:00,
2013-05-01 09:55:00,65.4,37.7,30.41,ESE,123,1.0,2.0,36,0.00,,,0.00,Wunderground v.1.15,2013-05-01 13:55:00,
2013-05-01 10:00:00,66.5,38.7,30.41,South,191,1.0,1.0,36,0.00,,,0.00,Wunderground v.1.15,2013-05-01 14:00:00,
2013-05-01 10:10:00,67.6,37.5,30.41,SE,139,2.0,4.0,33,0.00,,,0.00,Wunderground v.1.15,2013-05-01 14:10:00,
2013-05-01 10:20:00,68.1,35.5,30.40,WSW,256,3.0,3.0,30,0.00,,,0.00,Wunderground v.1.15,2013-05-01 14:20:00,
2013-05-01 10:25:00,68.7,36.0,30.40,ENE,70,2.0,3.0,30,0.00,,,0.00,Wunderground v.1.15,2013-05-01 14:25:00,
2013-05-01 10:30:00,69.8,36.1,30.40,SE,141,2.0,4.0,29,0.00,,,0.00,Wunderground v.1.15,2013-05-01 14:30:00,
2013-05-01 10:35:00,69.7,33.3,30.40,SSE,148,2.0,4.0,26,0.00,,,0.00,Wunderground v.1.15,2013-05-01 14:35:00,
2013-05-01 10:45:00,70.3,34.7,30.40,SE,141,3.0,3.0,27,0.00,,,0.00,Wunderground v.1.15,2013-05-01 14:45:00,
2013-05-01 10:50:00,70.7,35.1,30.40,ESE,119,2.0,4.0,27,0.00,,,0.00,Wunderground v.1.15,2013-05-01 14:50:00,
2013-05-01 10:55:00,70.8,36.1,30.40,SSE,165,2.0,4.0,28,0.00,,,0.00,Wunderground v.1.15,2013-05-01 14:55:00,
2013-05-01 11:00:00,71.8,35.0,30.40,SE,128,3.0,3.0,26,0.00,,,0.00,Wunderground v.1.15,2013-05-01 15:00:00,
2013-05-01 11:10:00,72.8,33.9,30.40,SSW,197,2.0,3.0,24,0.00,,,0.00,Wunderground v.1.15,2013-05-01 15:10:00,
2013-05-01 11:20:00,72.7,34.8,30.39,NE,34,3.0,3.0,25,0.00,,,0.00,Wunderground v.1.15,2013-05-01 15:20:00,
2013-05-01 11:25:00,72.7,34.8,30.39,South,174,3.0,3.0,25,0.00,,,0.00,Wunderground v.1.15,2013-05-01 15:25:00,
2013-05-01 11:30:00,72.6,33.7,30.39,North,359,3.0,4.0,24,0.00,,,0.00,Wunderground v.1.15,2013-05-01 15:30:00,
2013-05-01 11:35:00,71.4,33.7,30.38,NE,39,4.0,4.0,25,0.00,,,0.00,Wunderground v.1.15,2013-05-01 15:35:00,
2013-05-01 11:40:00,71.9,34.1,30.38,SE,141,4.0,4.0,25,0.00,,,0.00,Wunderground v.1.15,2013-05-01 15:40:00,
2013-05-01 11:50:00,74.0,33.8,30.38,SE,141,3.0,5.0,23,0.00,,,0.00,Wunderground v.1.15,2013-05-01 15:50:00,
2013-05-01 11:55:00,73.1,33.1,30.38,SE,132,4.0,6.0,23,0.00,,,0.00,Wunderground v.1.15,2013-05-01 15:55:00,
2013-05-01 12:00:00,73.0,34.1,30.38,SSE,152,5.0,5.0,24,0.00,,,0.00,Wunderground v.1.15,2013-05-01 16:00:00,
2013-05-01 12:10:00,74.7,34.4,30.37,SE,129,3.0,5.0,23,0.00,,,0.00,Wunderground v.1.15,2013-05-01 16:10:00,
2013-05-01 12:15:00,74.2,32.9,30.37,SSE,158,3.0,5.0,22,0.00,,,0.00,Wunderground v.1.15,2013-05-01 16:15:00,
2013-05-01 12:25:00,74.6,33.2,30.36,SE,145,2.0,3.0,22,0.00,,,0.00,Wunderground v.1.15,2013-05-01 16:25:00,
2013-05-01 12:30:00,74.9,34.6,30.36,SSE,160,3.0,3.0,23,0.00,,,0.00,Wunderground v.1.15,2013-05-01 16:30:00,
2013-05-01 12:35:00,75.2,34.8,30.36,SSE,148,2.0,4.0,23,0.00,,,0.00,Wunderground v.1.15,2013-05-01 16:35:00,
2013-05-01 12:40:00,75.4,33.9,30.36,ESE,114,3.0,3.0,22,0.00,,,0.00,Wunderground v.1.15,2013-05-01 16:40:00,
2013-05-01 12:45:00,75.5,32.8,30.36,SE,133,4.0,4.0,21,0.00,,,0.00,Wunderground v.1.15,2013-05-01 16:45:00,
2013-05-01 12:50:00,75.3,33.8,30.36,SE,126,4.0,7.0,22,0.00,,,0.00,Wunderground v.1.15,2013-05-01 16:50:00,
2013-05-01 13:00:00,75.8,34.2,30.35,SE,128,4.0,7.0,22,0.00,,,0.00,Wunderground v.1.15,2013-05-01 17:00:00,
2013-05-01 13:05:00,75.0,32.4,30.35,SSE,164,5.0,7.0,21,0.00,,,0.00,Wunderground v.1.15,2013-05-01 17:05:00,
2013-05-01 13:15:00,75.6,34.1,30.35,ESE,122,3.0,9.0,22,0.00,,,0.00,Wunderground v.1.15,2013-05-01 17:15:00,
2013-05-01 13:20:00,75.3,33.8,30.35,SE,129,4.0,4.0,22,0.00,,,0.00,Wunderground v.1.15,2013-05-01 17:20:00,
2013-05-01 13:25:00,74.9,33.5,30.35,SE,138,3.0,4.0,22,0.00,,,0.00,Wunderground v.1.15,2013-05-01 17:25:00,
2013-05-01 13:35:00,75.9,34.3,30.35,SE,132,4.0,7.0,22,0.00,,,0.00,Wunderground v.1.15,2013-05-01 17:35:00,
2013-05-01 13:40:00,75.5,34.0,30.34,SE,139,5.0,7.0,22,0.00,,,0.00,Wunderground v.1.15,2013-05-01 17:40:00,
2013-05-01 13:45:00,75.3,33.8,30.34,SSE,147,5.0,7.0,22,0.00,,,0.00,Wunderground v.1.15,2013-05-01 17:45:00,
2013-05-01 13:50:00,75.3,33.8,30.34,SE,132,6.0,10.0,22,0.00,,,0.00,Wunderground v.1.15,2013-05-01 17:50:00,
2013-05-01 13:55:00,75.9,34.3,30.34,SSE,150,6.0,10.0,22,0.00,,,0.00,Wunderground v.1.15,2013-05-01 17:55:00,
2013-05-01 14:05:00,76.1,33.3,30.34,South,184,5.0,7.0,21,0.00,,,0.00,Wunderground v.1.15,2013-05-01 18:05:00,
2013-05-01 14:10:00,76.9,34.0,30.34,South,190,4.0,6.0,21,0.00,,,0.00,Wunderground v.1.15,2013-05-01 18:10:00,
2013-05-01 14:20:00,76.6,32.5,30.34,SSE,155,5.0,5.0,20,0.00,,,0.00,Wunderground v.1.15,2013-05-01 18:20:00,
2013-05-01 14:25:00,76.6,33.7,30.33,SE,134,5.0,5.0,21,0.00,,,0.00,Wunderground v.1.15,2013-05-01 18:25:00,
2013-05-01 14:30:00,77.6,34.6,30.33,SSE,148,3.0,3.0,21,0.00,,,0.00,Wunderground v.1.15,2013-05-01 18:30:00,
2013-05-01 14:40:00,77.5,33.2,30.33,SE,127,3.0,5.0,20,0.00,,,0.00,Wunderground v.1.15,2013-05-01 18:40:00,
2013-05-01 14:45:00,76.8,32.7,30.33,SSE,150,5.0,5.0,20,0.00,,,0.00,Wunderground v.1.15,2013-05-01 18:45:00,
2013-05-01 14:50:00,77.6,34.6,30.33,SE,143,3.0,3.0,21,0.00,,,0.00,Wunderground v.1.15,2013-05-01 18:50:00,
2013-05-01 15:00:00,77.8,34.7,30.32,SSE,166,2.0,2.0,21,0.00,,,0.00,Wunderground v.1.15,2013-05-01 19:00:00,
2013-05-01 15:10:00,77.4,33.2,30.32,SE,134,3.0,5.0,20,0.00,,,0.00,Wunderground v.1.15,2013-05-01 19:10:00,
2013-05-01 15:15:00,77.4,33.2,30.32,SE,131,4.0,5.0,20,0.00,,,0.00,Wunderground v.1.15,2013-05-01 19:15:00,
2013-05-01 15:20:00,77.5,33.2,30.32,SE,141,3.0,4.0,20,0.00,,,0.00,Wunderground v.1.15,2013-05-01 19:20:00,
2013-05-01 15:30:00,77.6,33.3,30.32,SSE,159,2.0,3.0,20,0.00,,,0.00,Wunderground v.1.15,2013-05-01 19:30:00,
2013-05-01 15:35:00,78.0,33.7,30.32,SSE,148,3.0,4.0,20,0.00,,,0.00,Wunderground v.1.15,2013-05-01 19:35:00,
2013-05-01 15:45:00,77.5,33.2,30.32,SE,139,4.0,6.0,20,0.00,,,0.00,Wunderground v.1.15,2013-05-01 19:45:00,
2013-05-01 15:50:00,76.8,32.7,30.32,SE,134,5.0,6.0,20,0.00,,,0.00,Wunderground v.1.15,2013-05-01 19:50:00,
2013-05-01 16:00:00,77.5,34.5,30.32,NE,35,4.0,4.0,21,0.00,,,0.00,Wunderground v.1.15,2013-05-01 20:00:00,
2013-05-01 16:05:00,78.0,33.7,30.32,SSE,148,3.0,5.0,20,0.00,,,0.00,Wunderground v.1.15,2013-05-01 20:05:00,
2013-05-01 16:10:00,77.5,33.2,30.32,West,270,3.0,3.0,20,0.00,,,0.00,Wunderground v.1.15,2013-05-01 20:10:00,
2013-05-01 16:20:00,76.1,33.3,30.32,SW,224,2.0,2.0,21,0.00,,,0.00,Wunderground v.1.15,2013-05-01 20:20:00,
2013-05-01 16:25:00,75.4,32.7,30.31,SSE,153,3.0,3.0,21,0.00,,,0.00,Wunderground v.1.15,2013-05-01 20:25:00,
2013-05-01 16:35:00,74.5,32.0,30.32,South,186,3.0,4.0,21,0.00,,,0.00,Wunderground v.1.15,2013-05-01 20:35:00,
2013-05-01 16:40:00,74.4,33.1,30.32,SSE,151,2.0,2.0,22,0.00,,,0.00,Wunderground v.1.15,2013-05-01 20:40:00,
2013-05-01 16:50:00,74.5,33.1,30.32,SE,146,2.0,3.0,22,0.00,,,0.00,Wunderground v.1.15,2013-05-01 20:50:00,
2013-05-01 16:55:00,74.4,33.1,30.32,SE,135,2.0,3.0,22,0.00,,,0.00,Wunderground v.1.15,2013-05-01 20:55:00,
2013-05-01 17:05:00,75.1,33.6,30.32,SE,145,1.0,3.0,22,0.00,,,0.00,Wunderground v.1.15,2013-05-01 21:05:00,
2013-05-01 17:10:00,75.5,32.8,30.32,SSW,204,2.0,2.0,21,0.00,,,0.00,Wunderground v.1.15,2013-05-01 21:10:00,
2013-05-01 17:15:00,75.8,33.1,30.32,SSW,197,2.0,2.0,21,0.00,,,0.00,Wunderground v.1.15,2013-05-01 21:15:00,
2013-05-01 17:25:00,74.6,32.1,30.33,SSE,166,4.0,5.0,21,0.00,,,0.00,Wunderground v.1.15,2013-05-01 21:25:00,
2013-05-01 17:30:00,73.7,32.5,30.33,SSE,153,5.0,5.0,22,0.00,,,0.00,Wunderground v.1.15,2013-05-01 21:30:00,
2013-05-01 17:40:00,72.6,32.7,30.34,ESE,121,3.0,3.0,23,0.00,,,0.00,Wunderground v.1.15,2013-05-01 21:40:00,
2013-05-01 17:45:00,72.2,33.4,30.34,SE,126,3.0,3.0,24,0.00,,,0.00,Wunderground v.1.15,2013-05-01 21:45:00,
2013-05-01 17:55:00,71.5,33.8,30.34,North,360,1.0,2.0,25,0.00,,,0.00,Wunderground v.1.15,2013-05-01 21:55:00,
2013-05-01 18:00:00,70.9,34.3,30.34,WSW,242,1.0,1.0,26,0.00,,,0.00,Wunderground v.1.15,2013-05-01 22:00:00,
2013-05-01 18:05:00,70.3,34.7,30.35,SSE,158,1.0,1.0,27,0.00,,,0.00,Wunderground v.1.15,2013-05-01 22:05:00,
2013-05-01 18:15:00,69.2,33.8,30.35,ENE,62,1.0,1.0,27,0.00,,,0.00,Wunderground v.1.15,2013-05-01 22:15:00,
2013-05-01 18:20:00,68.9,34.4,30.35,ENE,58,1.0,3.0,28,0.00,,,0.00,Wunderground v.1.15,2013-05-01 22:20:00,
2013-05-01 18:30:00,68.5,34.1,30.35,NE,45,1.0,1.0,28,0.00,,,0.00,Wunderground v.1.15,2013-05-01 22:30:00,
2013-05-01 18:35:00,68.3,33.9,30.35,South,181,1.0,1.0,28,0.00,,,0.00,Wunderground v.1.15,2013-05-01 22:35:00,
2013-05-01 18:45:00,67.8,35.2,30.35,NE,53,1.0,3.0,30,0.00,,,0.00,Wunderground v.1.15,2013-05-01 22:45:00,
2013-05-01 18:50:00,67.6,35.0,30.35,NE,51,1.0,1.0,30,0.00,,,0.00,Wunderground v.1.15,2013-05-01 22:50:00,
2013-05-01 19:00:00,66.7,35.9,30.36,East,90,0.0,0.0,32,0.00,,,0.00,Wunderground v.1.15,2013-05-01 23:00:00,
2013-05-01 19:05:00,66.1,38.4,30.37,ENE,70,0.0,1.0,36,0.00,,,0.00,Wunderground v.1.15,2013-05-01 23:05:00,
2013-05-01 19:10:00,65.3,38.3,30.37,NE,43,0.0,0.0,37,0.00,,,0.00,Wunderground v.1.15,2013-05-01 23:10:00,
2013-05-01 19:20:00,64.2,36.0,30.37,WSW,239,0.0,0.0,35,0.00,,,0.00,Wunderground v.1.15,2013-05-01 23:20:00,
2013-05-01 19:25:00,64.3,34.6,30.37,ESE,117,1.0,1.0,33,0.00,,,0.00,Wunderground v.1.15,2013-05-01 23:25:00,
2013-05-01 19:35:00,64.5,35.5,30.37,NE,49,1.0,2.0,34,0.00,,,0.00,Wunderground v.1.15,2013-05-01 23:35:00,
2013-05-01 19:40:00,64.3,35.3,30.37,NE,34,1.0,1.0,34,0.00,,,0.00,Wunderground v.1.15,2013-05-01 23:40:00,
2013-05-01 19:50:00,63.9,35.7,30.37,NNE,23,1.0,1.0,35,0.00,,,0.00,Wunderground v.1.15,2013-05-01 23:50:00,
2013-05-01 19:55:00,63.2,35.1,30.38,NE,43,1.0,1.0,35,0.00,,,0.00,Wunderground v.1.15,2013-05-01 23:55:00,
2013-05-01 20:00:00,62.7,35.3,30.38,NE,39,0.0,1.0,36,0.00,,,0.00,Wunderground v.1.15,2013-05-02 00:00:00,
2013-05-01 20:10:00,61.5,35.6,30.38,NNE,30,1.0,1.0,38,0.00,,,0.00,Wunderground v.1.15,2013-05-02 00:10:00,
2013-05-01 20:20:00,60.1,38.1,30.38,NE,40,1.0,1.0,44,0.00,,,0.00,Wunderground v.1.15,2013-05-02 00:20:00,
2013-05-01 20:25:00,59.2,36.7,30.39,North,4,0.0,1.0,43,0.00,,,0.00,Wunderground v.1.15,2013-05-02 00:25:00,
2013-05-01 20:30:00,58.6,36.7,30.39,North,4,0.0,0.0,44,0.00,,,0.00,Wunderground v.1.15,2013-05-02 00:30:00,
2013-05-01 20:40:00,57.7,36.5,30.39,NNW,345,1.0,1.0,45,0.00,,,0.00,Wunderground v.1.15,2013-05-02 00:40:00,
2013-05-01 20:45:00,57.5,36.3,30.39,NNW,347,1.0,1.0,45,0.00,,,0.00,Wunderground v.1.15,2013-05-02 00:45:00,
2013-05-01 20:55:00,57.1,36.5,30.39,NNW,344,1.0,1.0,46,0.00,,,0.00,Wunderground v.1.15,2013-05-02 00:55:00,
2013-05-01 21:00:00,56.6,37.1,30.39,NNW,346,0.0,0.0,48,0.00,,,0.00,Wunderground v.1.15,2013-05-02 01:00:00,
2013-05-01 21:05:00,56.0,36.6,30.39,NNW,345,0.0,0.0,48,0.00,,,0.00,Wunderground v.1.15,2013-05-02 01:05:00,
2013-05-01 21:15:00,55.6,36.7,30.39,NNW,345,0.0,0.0,49,0.00,,,0.00,Wunderground v.1.15,2013-05-02 01:15:00,
2013-05-01 21:20:00,55.3,35.9,30.39,North,352,0.0,0.0,48,0.00,,,0.00,Wunderground v.1.15,2013-05-02 01:20:00,
2013-05-01 21:30:00,55.0,36.2,30.40,North,352,0.0,1.0,49,0.00,,,0.00,Wunderground v.1.15,2013-05-02 01:30:00,
2013-05-01 21:35:00,54.5,37.2,30.40,North,352,0.0,1.0,52,0.00,,,0.00,Wunderground v.1.15,2013-05-02 01:35:00,
2013-05-01 21:45:00,53.4,35.7,30.40,North,352,0.0,0.0,51,0.00,,,0.00,Wunderground v.1.15,2013-05-02 01:45:00,
2013-05-01 21:50:00,53.3,37.1,30.40,North,352,0.0,0.0,54,0.00,,,0.00,Wunderground v.1.15,2013-05-02 01:50:00,
2013-05-01 22:00:00,52.3,36.1,30.40,North,352,0.0,0.0,54,0.00,,,0.00,Wunderground v.1.15,2013-05-02 02:00:00,
2013-05-01 22:05:00,52.0,35.4,30.39,North,352,0.0,0.0,53,0.00,,,0.00,Wunderground v.1.15,2013-05-02 02:05:00,
2013-05-01 22:15:00,51.6,35.9,30.40,North,352,0.0,0.0,55,0.00,,,0.00,Wunderground v.1.15,2013-05-02 02:15:00,
2013-05-01 22:20:00,51.3,36.1,30.40,North,353,0.0,0.0,56,0.00,,,0.00,Wunderground v.1.15,2013-05-02 02:20:00,
2013-05-01 22:30:00,50.6,36.4,30.39,North,352,0.0,0.0,58,0.00,,,0.00,Wunderground v.1.15,2013-05-02 02:30:00,
2013-05-01 22:35:00,50.2,36.8,30.40,North,351,0.0,0.0,60,0.00,,,0.00,Wunderground v.1.15,2013-05-02 02:35:00,
2013-05-01 22:45:00,50.1,36.7,30.40,North,352,0.0,0.0,60,0.00,,,0.00,Wunderground v.1.15,2013-05-02 02:45:00,
2013-05-01 22:50:00,49.5,37.0,30.40,North,351,0.0,0.0,62,0.00,,,0.00,Wunderground v.1.15,2013-05-02 02:50:00,
2013-05-01 23:00:00,48.9,38.4,30.40,North,352,0.0,0.0,67,0.00,,,0.00,Wunderground v.1.15,2013-05-02 03:00:00,
2013-05-01 23:05:00,49.0,37.7,30.40,North,351,0.0,0.0,65,0.00,,,0.00,Wunderground v.1.15,2013-05-02 03:05:00,
2013-05-01 23:15:00,49.3,36.4,30.39,NNW,343,1.0,1.0,61,0.00,,,0.00,Wunderground v.1.15,2013-05-02 03:15:00,
2013-05-01 23:20:00,49.1,37.0,30.39,NNW,343,0.0,0.0,63,0.00,,,0.00,Wunderground v.1.15,2013-05-02 03:20:00,
2013-05-01 23:30:00,48.4,37.9,30.39,NNW,343,0.0,0.0,67,0.00,,,0.00,Wunderground v.1.15,2013-05-02 03:30:00,
2013-05-01 23:35:00,48.1,37.3,30.39,NNW,343,0.0,0.0,66,0.00,,,0.00,Wunderground v.1.15,2013-05-02 03:35:00,
2013-05-01 23:40:00,47.8,37.0,30.39,NNW,343,0.0,0.0,66,0.00,,,0.00,Wunderground v.1.15,2013-05-02 03:40:00,
2013-05-01 23:50:00,47.8,36.2,30.39,NNW,344,0.0,1.0,64,0.00,,,0.00,Wunderground v.1.15,2013-05-02 03:50:00,